Theta_e
362 362 361 360 359 359 358 355 354 352 353 351 350 353 352 358 360 356 355 357 358 359 360 361 362 362 359 364 365 366 363 363 362 362 363 360 358 356 351 351 352 352
362 363 362 360 359 360 360 358 357 354 355 356 352 351 353 356 358 358 356 355 358 358 361 362 362 362 361 360 365 361 361 363 362 361 361 360 358 356 354 354 352 354
361 362 362 360 358 359 359 360 358 357 357 357 354 352 351 353 357 359 358 357 357 356 359 361 361 360 357 359 363 362 360 363 361 361 362 361 359 358 357 354 353 353
358 358 359 360 360 359 360 360 358 358 359 357 357 353 352 352 354 357 358 360 358 358 357 360 360 359 358 358 362 361 361 364 363 363 363 364 361 359 357 356 355 354
357 357 358 358 360 361 360 358 358 358 356 356 356 358 355 355 356 355 356 357 359 357 357 358 359 358 359 358 361 360 359 361 363 363 363 363 363 361 358 356 356 354
358 359 360 358 357 360 357 356 357 357 357 355 355 357 357 356 355 353 352 354 355 354 354 357 357 355 355 357 359 360 358 357 359 363 360 360 361 359 356 356 357 355
356 356 358 360 360 359 358 357 358 357 356 357 357 357 357 357 356 354 351 352 353 354 352 356 357 354 353 356 359 359 357 359 359 361 357 358 358 356 354 356 358 356
355 356 357 356 357 358 358 356 356 356 356 357 355 357 357 356 359 356 352 349 351 351 353 354 357 356 353 352 354 356 357 355 355 363 364 359 360 357 358 355 358 359
354 354 354 354 354 356 357 355 355 356 356 355 353 356 356 356 358 358 355 351 350 351 352 353 355 356 354 352 351 353 354 353 351 357 361 358 356 359 358 358 356 359
353 354 355 355 354 354 356 357 355 356 356 354 354 358 356 353 357 359 358 355 351 351 351 353 353 356 354 353 351 352 353 352 353 354 356 356 354 355 355 356 355 355
353 354 357 357 355 354 356 356 356 355 357 354 356 356 357 355 357 361 359 358 355 352 350 351 352 354 357 354 351 352 351 352 353 354 355 357 356 356 357 356 355 354
352 354 353 354 354 354 354 351 351 352 356 356 357 354 354 354 356 357 357 359 357 354 351 351 353 354 356 356 351 350 351 351 351 352 353 356 357 356 356 357 356 357
354 353 352 352 352 354 356 353 350 351 354 355 357 352 350 348 351 352 354 358 359 356 355 354 354 353 354 356 352 351 351 350 349 350 350 355 356 356 356 357 356 355
354 356 356 356 356 356 356 356 354 353 355 357 353 349 354 351 350 349 347 352 356 357 355 356 357 355 356 357 355 351 350 349 349 348 348 351 351 355 355 355 356 356
355 356 356 356 357 357 357 355 354 351 354 357 358 355 351 350 351 350 350 349 351 355 355 358 356 354 357 355 356 354 351 349 348 347 347 348 349 349 352 355 356 356
357 357 356 355 353 352 353 355 353 352 352 351 356 354 355 352 351 351 349 352 353 351 351 351 353 354 353 351 348 356 353 349 350 350 349 348 348 348 348 350 352 353
356 355 356 354 352 353 354 350 348 349 351 351 352 353 351 348 350 351 350 354 351 353 353 352 355 355 355 343 343 351 356 355 353 354 355 351 348 350 351 349 349 350
355 355 355 354 351 351 352 350 347 346 346 347 348 349 352 351 349 348 349 353 357 356 356 356 355 355 344 344 345 346 355 357 355 355 355 356 356 353 352 352 350 349
356 355 353 353 352 351 353 351 350 346 346 345 346 348 349 347 347 350 353 353 353 353 354 355 354 352 340 341 342 341 345 358 355 353 352 353 355 356 356 355 355 352
354 354 353 352 353 353 352 351 350 348 347 347 347 347 347 348 350 351 352 353 353 353 352 353 354 354 337 339 339 340 342 351 357 357 359 350 352 355 357 356 357 358
353 354 353 352 351 352 352 351 350 350 348 347 347 346 346 346 347 348 350 352 352 352 352 351 352 344 334 334 333 333 336 349 357 357 356 357 356 355 360 359 359 359
354 354 352 351 353 351 349 349 349 347 346 348 348 348 349 349 349 350 350 350 352 352 351 351 352 337 333 333 331 331 336 352 355 357 357 355 356 357 358 358 359 360
355 354 352 352 352 352 351 349 348 348 348 349 347 347 347 347 347 348 351 351 351 352 351 352 352 339 329 330 330 329 337 350 353 354 355 355 356 358 357 359 360 361
355 354 353 352 352 350 349 350 351 351 349 350 348 348 348 348 348 348 349 350 350 350 350 350 350 343 326 326 325 325 341 350 352 351 351 352 354 358 358 357 357 358
355 354 353 353 353 352 351 350 350 350 351 350 351 350 350 351 349 347 348 348 349 350 350 350 349 348 326 325 323 324 337 351 353 353 352 353 353 354 354 355 357 357
354 354 355 355 355 354 353 352 351 350 350 351 347 346 345 349 350 349 348 349 351 350 350 351 351 352 343 323 322 322 328 349 352 352 351 350 352 352 353 355 356 357
Wind_Speed
10 9 10 10 9 9 9 10 10 11 10 11 11 11 11 11 11 11 13 11 12 11 11 10 9 9 9 8 7 7 6 7 6 6 6 5 5 7 6 6 5 4
12 11 9 9 9 8 9 10 10 10 10 10 10 11 11 11 12 12 12 12 12 12 11 11 11 11 10 9 9 8 7 7 7 6 7 8 8 8 7 6 6 5
12 11 11 12 11 12 12 11 10 10 10 11 12 11 11 12 12 12 11 12 12 13 12 11 11 11 12 10 9 9 9 8 8 5 5 7 9 7 6 7 7 7
13 13 12 13 12 12 11 11 11 10 10 10 11 12 11 11 12 13 12 13 12 12 13 12 12 12 12 12 10 9 9 9 8 8 8 7 8 7 8 7 6 7
13 13 13 13 13 12 12 12 13 12 12 11 11 12 12 11 12 14 13 13 13 13 12 13 13 12 12 11 11 9 10 9 9 8 4 7 7 7 7 7 7 7
11 11 12 13 13 13 12 13 14 14 13 14 13 11 12 14 13 14 15 15 14 15 14 14 14 14 13 12 11 10 10 10 10 10 8 10 8 8 8 8 7 8
11 11 13 12 12 14 13 14 13 13 13 13 12 13 13 14 14 14 15 15 16 15 16 14 13 13 12 11 11 11 10 10 10 11 13 11 9 8 9 10 8 8
11 11 11 11 13 12 13 14 15 15 14 14 15 13 12 13 14 14 15 16 16 16 16 15 13 13 14 13 13 12 12 10 10 9 10 10 9 10 11 9 7 8
10 10 11 13 13 11 13 15 15 16 15 14 15 13 13 13 14 14 14 16 16 15 15 15 14 14 14 13 13 13 13 13 13 12 11 11 11 10 10 10 9 8
10 10 11 12 12 11 14 16 15 14 15 15 15 11 12 13 15 14 14 14 15 15 16 15 15 14 14 14 14 13 13 13 13 12 12 12 12 12 12 11 11 10
9 10 10 11 12 11 13 14 14 15 14 16 12 11 9 8 11 7 11 13 13 15 15 15 14 14 14 14 14 13 13 13 13 12 12 12 12 11 11 11 11 10
9 8 8 10 11 12 12 11 12 15 15 13 10 10 8 9 6 5 10 12 13 13 14 14 14 14 14 13 14 13 12 13 13 13 12 12 11 11 11 11 10 10
7 8 7 8 10 11 11 10 12 13 14 12 11 13 14 12 8 6 8 10 12 10 8 10 13 14 13 13 13 14 13 13 13 13 13 12 12 12 12 11 12 11
6 6 6 7 7 9 11 12 12 12 12 13 12 14 10 12 10 9 12 9 6 6 7 7 12 12 11 11 12 13 13 13 13 13 13 13 13 12 12 11 11 12
5 5 5 6 7 8 10 11 12 13 12 11 11 11 10 11 11 11 10 11 9 5 2 3 5 4 4 5 9 12 12 13 13 13 13 12 12 13 12 12 12 11
5 5 5 5 6 8 9 10 12 12 12 13 12 13 11 10 9 11 11 12 8 7 6 5 7 5 6 5 5 7 11 11 11 12 12 12 11 11 11 12 12 12
3 5 5 6 5 5 8 10 14 12 9 8 9 10 12 12 12 10 10 10 13 13 13 11 8 8 12 13 15 15 12 11 12 11 11 11 11 11 11 11 12 13
3 4 5 5 5 4 4 5 6 8 9 9 9 11 8 11 9 11 13 12 9 9 10 10 11 11 12 13 15 16 13 10 10 10 9 10 10 12 11 11 11 11
3 3 3 4 4 3 3 4 7 9 7 6 7 9 9 10 9 9 8 9 10 10 11 10 10 11 12 12 12 12 12 11 11 11 10 7 8 10 11 10 9 10
3 3 1 1 2 2 3 4 4 7 9 7 5 6 6 7 8 8 7 8 9 10 10 10 11 10 11 12 12 11 11 11 11 11 2 4 8 10 9 9 9 8
2 1 1 1 2 2 2 4 6 5 6 7 7 7 7 7 7 8 7 6 7 9 9 10 9 10 12 12 11 10 10 9 10 11 9 8 9 12 10 9 8 8
1 0 1 2 2 3 3 4 5 6 7 7 7 7 6 6 6 7 8 7 7 9 9 10 9 13 14 14 14 12 10 8 10 10 11 12 12 12 11 10 11 10
1 1 2 2 3 3 4 4 4 5 6 6 7 7 8 8 7 7 5 6 7 9 10 8 8 8 13 14 14 13 9 9 10 10 10 12 12 11 10 10 10 11
2 3 3 3 3 4 4 4 4 4 5 6 6 7 8 9 8 7 6 6 8 10 9 9 10 9 13 13 12 12 11 11 10 10 11 11 12 11 7 8 13 14
5 4 3 4 4 4 4 5 5 4 3 3 3 4 5 6 8 8 8 8 8 7 9 9 9 8 13 14 14 15 13 9 8 9 9 10 10 10 10 11 10 11
4 5 4 4 5 4 4 3 4 5 5 5 3 2 2 3 4 7 9 9 10 11 10 10 9 8 10 14 14 15 15 11 9 8 7 9 9 9 8 8 9 9
Wind_Direction
209 205 204 207 213 214 204 205 200 200 205 207 205 203 205 199 204 203 204 198 198 199 198 199 194 198 199 197 193 205 196 190 209 170 209 192 231 231 206 206 217 247
213 212 209 211 211 214 210 205 204 210 201 210 213 209 208 206 201 204 204 203 196 202 198 196 199 200 205 201 192 200 199 191 213 193 192 200 214 217 224 197 209 212
216 213 215 214 214 213 211 212 208 210 210 205 212 216 207 207 206 202 204 205 201 201 199 200 199 202 206 207 199 201 196 195 199 237 229 192 222 224 225 214 208 201
227 224 219 220 222 220 215 216 216 209 211 209 212 212 212 206 205 202 202 203 207 205 201 200 204 201 203 204 201 208 200 192 192 192 217 212 216 220 215 231 232 206
233 232 232 229 226 222 218 219 217 213 210 211 212 214 212 211 203 207 205 203 208 207 206 204 204 207 202 205 201 209 205 199 187 183 208 226 213 222 230 219 222 231
237 235 234 235 228 224 222 222 222 222 220 214 211 210 213 208 207 208 209 208 205 210 208 205 205 205 206 202 205 209 210 208 191 179 190 222 216 215 224 219 216 224
238 237 234 235 237 231 226 227 225 223 222 223 212 215 213 209 207 208 210 211 212 209 212 208 207 208 206 204 202 206 214 213 209 185 198 205 212 219 229 237 217 222
238 240 237 234 232 231 227 229 230 228 225 217 221 216 214 212 209 208 210 212 213 213 213 210 206 208 208 206 206 204 208 207 209 194 191 206 205 206 216 228 204 213
240 243 239 237 235 228 227 231 234 234 227 225 224 217 215 218 211 210 210 211 213 213 213 213 208 209 209 209 207 207 210 214 210 203 200 204 207 207 210 216 221 210
241 242 241 236 231 226 227 229 232 234 231 228 228 211 223 220 221 210 208 209 212 213 211 211 210 211 211 209 208 209 211 214 218 213 208 209 212 209 212 215 216 221
253 247 240 240 240 239 232 224 223 229 229 228 217 219 207 224 230 229 216 206 212 210 210 209 210 212 210 212 211 211 213 214 215 216 214 211 214 214 217 218 218 223
262 258 251 243 242 241 236 232 231 227 223 221 214 209 217 219 225 189 238 213 207 209 213 208 210 212 213 214 216 216 214 216 218 219 218 215 215 216 215 219 221 219
264 257 252 253 246 241 240 230 231 234 221 210 208 211 196 205 193 215 246 230 204 208 221 219 212 213 215 214 217 217 216 217 219 217 220 219 217 217 220 219 222 223
265 257 256 255 257 250 244 236 229 228 224 213 196 211 193 190 192 197 215 231 250 200 205 224 230 217 212 215 214 218 217 218 221 221 218 222 223 222 224 226 226 226
268 260 259 254 248 250 246 240 234 228 219 210 195 194 192 191 191 193 203 194 190 208 250 291 1 353 275 237 225 217 221 222 221 222 222 220 221 223 221 224 227 228
269 274 264 261 257 260 260 246 232 217 210 214 201 192 178 176 181 195 202 198 174 177 186 197 199 209 205 208 245 261 226 226 225 224 224 223 224 227 227 223 225 230
270 280 283 284 295 292 281 280 242 192 180 184 191 187 189 184 192 186 192 197 193 185 185 194 191 188 178 189 207 226 240 223 222 223 224 226 225 225 231 226 226 228
249 273 280 288 310 323 348 29 88 126 162 186 183 180 171 173 181 184 189 184 175 182 188 197 201 191 182 195 206 211 218 228 223 224 221 219 225 226 219 225 230 233
221 245 280 307 339 20 61 88 107 113 116 119 153 161 164 174 177 182 177 183 187 191 199 201 210 187 189 199 205 206 208 225 230 231 233 245 243 228 229 229 229 227
235 237 239 325 3 46 101 120 132 146 149 143 143 152 162 175 176 182 181 186 192 200 205 210 215 173 173 183 195 196 202 216 230 235 149 227 247 251 235 232 232 232
237 204 220 155 126 94 117 134 144 136 149 154 161 168 166 176 186 188 188 187 197 206 204 206 213 180 168 165 170 175 186 206 225 231 216 215 229 232 233 232 233 228
259 125 164 158 143 137 145 155 154 170 169 165 162 171 174 174 178 187 188 190 193 204 211 209 206 173 179 180 177 183 177 208 222 223 230 228 225 225 226 227 232 232
159 218 198 164 158 169 160 163 172 177 181 176 180 185 183 183 183 190 189 188 193 207 211 211 215 161 177 179 186 185 186 220 225 227 228 229 231 229 223 224 224 225
180 204 191 176 174 184 172 168 178 186 186 179 189 187 193 190 186 189 196 199 202 208 207 212 218 186 175 181 180 170 194 216 222 227 228 233 235 228 222 238 240 229
192 183 185 173 178 180 175 172 172 177 174 185 210 211 202 196 194 197 201 204 211 212 208 216 219 204 182 192 180 180 198 220 222 223 226 229 233 232 219 227 227 222
195 181 171 177 177 160 163 163 155 165 169 161 176 224 249 233 219 217 207 204 206 209 212 213 215 219 190 193 184 188 198 211 217 219 230 234 230 230 229 223 229 231